Regional Weather Roundup
Issued by NWS Newport/Morehead, NC

Current Version | Previous Version | Text Only | Print | Product List | Glossary On
Versions: 1 2 3 4 5 6 7 8 9 10 11 12 13 14 15 16 17 18 19 20 21 22 23 24 25 26 27 28 29 30 31 32 33 34 35 36 37 38 39 40 41 42 43 44 45 46 47 48 49 50
000
ASUS42 KMHX 161913
RWRMHX
WEATHER ROUNDUP FOR EASTERN NORTH CAROLINA
NATIONAL WEATHER SERVICE NEWPORT/MOREHEAD CITY NC
200 PM EST TUE JAN 16 2018

NOTE: "FAIR" INDICATES FEW OR NO CLOUDS BELOW 12,000 FEET
WITH NO SIGNIFICANT WEATHER AND/OR OBSTRUCTIONS TO VISIBILITY

NCZ015>017-031-032-045>047-102-103-162000-
NORTH COAST

CITY           SKY/WX    TMP DP  RH WIND       PRES   REMARKS
EDENTON        FAIR      43  35  73 NW6       30.40S
ELIZABETH CITY FAIR      40  39  97 NW7       30.38F
KITTY HAWK     MOCLDY    38  37  97 MISG      30.36F FOG
MANTEO         FAIR      38  34  85 N9        30.37F

$$

NCZ045>047-081-094-103-104-162000-
CENTRAL COAST

CITY           SKY/WX    TMP DP  RH WIND       PRES   REMARKS
FRISCO         NOT AVBL

$$

NCZ095-097-098-100-101-162000-
SOUTHERN COAST

CITY           SKY/WX    TMP DP  RH WIND       PRES   REMARKS
BEAUFORT       FAIR      54  32  43 E5        30.35F
CEDAR ISLAND   NOT AVBL
JACKSONVILLE   FAIR      53  31  42 N6        30.37F
PINEY ISLAND   NOT AVBL
WILMINGTON     FAIR      53  28  38 NW5       30.38F


$$

NCZ011>013-027>030-043-044-078>080-089-090>093-098-162000-
COASTAL PLAIN

CITY           SKY/WX    TMP DP  RH WIND       PRES   REMARKS
AHOSKIE        FAIR      43  31  62 CALM      30.38F
CLINTON        FAIR      49  26  41 W5        30.38F
ELIZABETHTOWN  NOT AVBL
GOLDSBORO      FAIR      51  20  30 W3        30.36F
GREENVILLE     FAIR      48  23  37 NW3       30.38F
HAVELOCK       NOT AVBL
KENANSVILLE    FAIR      48  23  37 CALM      30.38F
KINSTON        FAIR      50  25  37 NW5       30.39F
NEW BERN       FAIR      52  28  39 VRB3      30.37F
RICHLANDS      FAIR      51  28  41 VRB3      30.38F
ROCKY MOUNT    FAIR      45  21  38 VRB5      30.38F
WASHINGTON     FAIR      50  28  43 NW5       30.38F
WHITEVILLE     FAIR      50  24  36 CALM      30.37F

$$

AMZ130-135-150-152-154-156-158-170-250-252-270-ANZ085-086-088-633-658-670-162000-
MARINE OBSERVATIONS

STATION/POSITION TIME  TEMP    WIND        PRES    WAVE   SWELL
                       AIR SEA DIR/SP/G            HT/PER HT/PER
                 (UTC) (F)     (DEG/KT/KT) (MB)    (FT/S) (FT/S)
CHESAPEAKE LIGHT NOT AVBL
64 E VA BEACH    1850   51 62  360/  8/ 10 1028.2    7/11   7/11
DUCK             1836   35 38  360/  8/  9 1028.2
2 E DUCK         1830      39                N/A     4/11   2/11
OREGON INLET     1836   38 41  350/  9/ 13 1028.3
13E OREGON INLT  1848      45                N/A     6/10   7/10
HATTERAS CG      1836   38 46   20/ 10/ 12 1028.0
DIAMOND BUOY     1850   45 66  360/ 14/ 16 1028.3    5/10   5/10
CAPE LOOKOUT     1800           40/  8/  9 1028.9
BEAUFORT LAB     1836   51 45   CALM  /  3 1027.9
30 SE NEW RVR IN 1808   47 58   20/  6/ 10 1028.7
30 SE NEW RVR IN 1830      58                N/A     5/11   2/11
27 SE WRIGHTSVLE 1808   46 62  360/ 10/ 16 1028.6
5 SE WRIGHTSVLE  1808   44 47   70/  4/  6 1029.3
225 S CAPE HAT   1750   67 71   80/  8/ 10 1026.0    9/10   8/10
41 SE CHARLESTON 1850   52 69  360/  8/ 12 1028.7    6/10   5/10

$$




USA.gov is the U.S. government's official web portal to all federal, state and local government web resources and services.